Regional Weather Roundup
Issued by NWS

Home | Current Version | Previous Version | Graphics & Text | Print | Product List | Glossary On
Versions: 1 2 3 4 5 6 7 8 9 10 11 12 13 14 15 16 17 18 19 20 21 22 23 24 25 26 27 28 29 30 31 32 33 34 35 36 37 38 39 40 41 42 43 44 45 46 47 48 49 50
000
ASUS44 KMEG 232200
RWRTN
TENNESSEE HOURLY STATE WEATHER ROUNDUP
NATIONAL WEATHER SERVICE MEMPHIS TN
500 PM CDT THU OCT 23 2014

TNZ002-004-019-021-049-052-054-088>092-232300-
WEST TENNESSEE

CITY           SKY/WX    TMP DP  RH WIND       PRES   REMARKS
MEMPHIS INTL   CLOUDY    61  43  51 N6        30.14S
NWS MEMPHIS      N/A     61 N/A N/A MISG        N/A
JACKSON        CLOUDY    63  43  48 N7        30.12S
DYERSBURG      CLOUDY    61  37  41 CALM      30.15S
UNION CITY     SUNNY     59  43  55 CALM      30.13R
PARIS          SUNNY     57  43  58 N3        30.13S
LEXINGTON      SUNNY     61  46  59 CALM      30.10S
SAVANNAH       SUNNY     63  46  55 CALM      30.11R
$$

TNZ008-025-027-028-033-062-065-066-232300-
NORTH MIDDLE TENNESSEE

CITY           SKY/WX    TMP DP  RH WIND       PRES   REMARKS
NASHVILLE      PTSUNNY   64  41  42 CALM      30.11S
CLARKSVILLE    CLOUDY    63  41  44 VRB5      30.13R
COOKEVILLE     CLEAR     63  46  55 CALM      30.10S
CROSSVILLE     MOCLDY    63  39  41 N7        30.11S
$$

TNZ061-075-076-078-094-096-097-232300-
SOUTH MIDDLE TENNESSEE

CITY           SKY/WX    TMP DP  RH WIND       PRES   REMARKS
FAYETTEVILLE   SUNNY     61  41  48 CALM      30.09S
TULLAHOMA      SUNNY     61  43  51 N6        30.11R
WINCHESTER     SUNNY     63  43  48 N3        30.10R
MCMINNVILLE    SUNNY     61  46  59 CALM      30.11R
SHELBYVILLE    SUNNY     63  45  51 N5        30.11S
$$

TNZ017-018-042-046-047-232300-
NORTHEAST TENNESSEE

CITY           SKY/WX    TMP DP  RH WIND       PRES   REMARKS
TRI CITIES     PTCLDY    57  42  57 NE3       30.11R
ELIZABETHTON   CLEAR     54  39  58 N8        30.10R
$$

TNZ012-013-036-069-073-074-232300-
CENTRAL EAST TENNESSEE

CITY           SKY/WX    TMP DP  RH WIND       PRES   REMARKS
KNOXVILLE      MOCLDY    59  41  51 NE8       30.08F
OAK RIDGE      PTCLDY    62  42  47 E3        30.11S
GATLINBURG     CLEAR     57  39  51 NE7       30.09F
MORRISTOWN     CLEAR     59  41  51 CALM      30.11S
$$

TNZ083-085-099-232300-
SOUTHEAST TENNESSEE

CITY           SKY/WX    TMP DP  RH WIND       PRES   REMARKS
CHATTANOOGA    PTSUNNY   65  42  43 N12       30.08S
$$

SKY/WX REPORTED AS FAIR MEANS FEW OR NO CLOUDS BELOW
12 THOUSAND FEET.




USA.gov is the U.S. government's official web portal to all federal, state and local government web resources and services.